Location: Val de Santo Domingo
(40.0124°N, 4.3273°W)
Time: 05:37:48
(UTC+00:00)

Cosmos 1538 Rocket - Visible Passes

Search period start: 09 February 2026 00:00
Search period end: 19 February 2026 00:00
Orbit: 747 x 788 km, 74.0° (Epoch: 8 February)

Date Brightness Start Highest point End Pass type
(mag) Time Alt. Az. Time Alt. Az. Time Alt. Az.
9 Feb 6.4 06:21:45 10° N 06:25:50 22° ENE 06:29:51 10° ESE visible
10 Feb 6.8 05:45:46 10° NNE 05:48:20 13° NE 05:50:53 10° E visible
12 Feb 5.7 06:11:54 10° N 06:16:43 34° ENE 06:21:28 10° SE visible
13 Feb 6.4 05:35:21 10° N 05:39:21 21° ENE 05:43:16 10° ESE visible
13 Feb 6.4 20:10:44 10° S 20:10:51 11° S 20:10:51 11° S visible
14 Feb 6.9 04:59:26 10° NNE 05:01:51 13° NE 05:04:13 10° E visible
14 Feb 4.0 06:39:20 10° NNW 06:44:39 86° WSW 06:49:52 10° SSE visible
14 Feb 5.5 19:34:15 10° SSE 19:36:20 21° SSE 19:36:20 21° SSE visible
14 Feb 6.7 21:16:19 10° WSW 21:16:43 12° WSW 21:16:43 12° WSW visible
15 Feb 4.8 06:02:16 10° N 06:07:29 55° ENE 06:12:37 10° SE visible
15 Feb 5.3 18:58:25 10° SE 19:02:01 19° E 19:02:01 19° E visible
15 Feb 5.1 20:38:32 10° SW 20:42:26 41° WSW 20:42:26 41° WSW visible
16 Feb 5.7 05:25:28 10° N 05:30:14 33° ENE 05:34:55 10° SE visible
16 Feb 5.8 18:24:20 10° ESE 18:25:20 10° E 18:26:20 10° E visible
16 Feb 4.0 20:01:11 10° SSW 20:06:32 86° WNW 20:08:23 43° NNE visible
16 Feb 6.9 21:47:24 10° WNW 21:48:49 12° WNW 21:48:49 12° WNW visible
17 Feb 6.5 04:48:57 10° N 04:52:51 20° ENE 04:56:41 10° ESE visible
17 Feb 4.2 06:30:06 10° NNW 06:35:13 51° WSW 06:40:14 10° S visible
17 Feb 4.1 19:24:17 10° S 19:29:28 56° ESE 19:34:34 11° NNE visible
17 Feb 6.4 21:08:05 10° WSW 21:11:54 20° WNW 21:15:01 13° NNW visible
18 Feb 6.9 04:13:07 10° NNE 04:15:20 12° NE 04:17:31 10° ENE visible
18 Feb 4.0 05:52:51 10° NNW 05:58:10 89° WSW 06:03:23 10° SSE visible
18 Feb 4.7 18:47:49 10° SSE 18:52:31 32° E 18:57:13 10° NE visible
18 Feb 5.7 20:29:47 10° SW 20:34:30 31° WNW 20:39:16 10° N visible
